This is the latest recevied weather packets stored in our database for station/object K7KAR-2. If no packets are shown the sender has not sent any weather packets the latest 10 day(s).
| Time | Temp. | Humidity | Pressure | Rain* | Wind** | Luminosity | Snow |
|---|---|---|---|---|---|---|---|
| 1777816244 | 10.56° C | 65% | 1015.1 hPa | 0 mm | - | 114 W/m² | - |
| 1777815941 | 10.56° C | 64% | 1015.3 hPa | 0 mm | - | 108 W/m² | - |
| 1777815639 | 10° C | 65% | 1014.9 hPa | 0 mm | - | 104 W/m² | - |
| 1777815336 | 10° C | 66% | 1015.4 hPa | 0 mm | - | 101 W/m² | - |
| 1777815032 | 9.44° C | 66% | 1015.3 hPa | 0 mm | - | 100 W/m² | - |
| 1777814723 | 8.89° C | 68% | 1015 hPa | 0 mm | - | 92 W/m² | - |
| 1777814420 | 8.89° C | 69% | 1015.3 hPa | 0 mm | - | 86 W/m² | - |
| 1777814117 | 8.33° C | 70% | 1015 hPa | 0 mm | - | 80 W/m² | - |
| 1777813814 | 7.78° C | 70% | 1015 hPa | 0 mm | - | 74 W/m² | - |
| 1777813511 | 7.78° C | 69% | 1015.3 hPa | 0 mm | - | 70 W/m² | - |
| 1777813209 | 7.78° C | 68% | 1014.9 hPa | 0 mm | - | 97 W/m² | - |
| 1777812906 | 7.78° C | 68% | 1014.9 hPa | 0 mm | - | 87 W/m² | - |
| 1777812603 | 7.78° C | 68% | 1015.1 hPa | 0 mm | - | 78 W/m² | - |
| 1777812300 | 7.22° C | 69% | 1014.9 hPa | 0 mm | - | 61 W/m² | - |
| 1777811998 | 6.67° C | 69% | 1015 hPa | 0 mm | - | 52 W/m² | - |
| 1777811697 | 7.22° C | 69% | 1015 hPa | 0 mm | - | 34 W/m² | - |
| 1777811392 | 6.67° C | 69% | 1015 hPa | 0 mm | - | 29 W/m² | - |
| 1777811089 | 6.67° C | 69% | 1014.9 hPa | 0 mm | - | 23 W/m² | - |
| 1777810786 | 6.67° C | 69% | 1014.8 hPa | 0 mm | - | 18 W/m² | - |
| 1777810483 | 6.67° C | 69% | 1015.1 hPa | 0 mm | - | 14 W/m² | - |
| 1777810179 | 7.22° C | 68% | 1015 hPa | 0 mm | - | 9 W/m² | - |
| 1777809876 | 7.22° C | 67% | 1014.8 hPa | 0 mm | - | 5 W/m² | - |
| 1777809574 | 7.22° C | 67% | 1015.1 hPa | 0 mm | - | 3 W/m² | - |
| 1777809272 | 7.78° C | 66% | 1015.3 hPa | 0 mm | - | 1 W/m² | - |
| 1777808969 | 7.22° C | 67% | 1015 hPa | 0 mm | - | 0 W/m² | - |
* Rain latest hour (hover to see other rain measurements)
** Current wind speed in m/s (hover to see current wind gust speed)